Chicago Midway, IL

10:32 AM CST on December 15, 2019 (GMT -0600)
Chicago-Midway

Weather History for KMDW - October, 2019

Change the Weather History Date:

Monday, October 28, 2019

  Actual Average Record
Temperature  
Mean Temperature 47 °F 50 °F  
Max Temperature 52 °F 58 °F 81 °F (1999)
Min Temperature 41 °F 42 °F 25 °F (1976)
Degree Days  
Heating Degree Days 18 15  
Month to date heating degree days 308 300  
Since 1 July heating degree days 309 382  
Cooling Degree Days 0 0  
Month to date cooling degree days 21 13  
Year to date cooling degree days 1131 1042  
Moisture  
Dew Point 42 °F    
Average Humidity 80    
Maximum Humidity 93    
Minimum Humidity 56    
Precipitation  
Precipitation T in 0.12 in 0.65 in (1970)
Month to date precipitation 3.87 2.90  
Year to date precipitation 41.69 32.76  
Sea Level Pressure  
Sea Level Pressure 30.04 in    
Wind  
Wind Speed 4 mph (WNW)    
Max Wind Speed 12 mph    
Max Gust Speed 16 mph    
Visibility 9 miles    
Events      
T = Trace of Precipitation, MM = Missing Value Source: NWS Daily Summary

Daily Weather History Graph

Daily Weather History Graph

Search for Another Location

Airport or City:

Astronomy

Oct. 28, 2019 Rise Set
Actual Time 7:18 AM CDT 5:50 PM CDT
Civil Twilight 6:49 AM CDT 6:19 PM CDT
Nautical Twilight 6:16 AM CDT 6:52 PM CDT
Astronomical Twilight 5:44 AM CDT 7:24 PM CDT
Moon 7:39 AM CDT (10/28) 6:35 PM CDT (10/28)
Length of Visible Light 11h 29m
Length of Day
10h 32m
New Moon, 0% of the Moon is Illuminated
Oct 28
New Moon
Nov 4
First Quarter
Nov 12
Full
Nov 19
Last Quarter
Nov 26
New

Hourly Weather History & Observations

Time (CDT) Temp. Windchill Dew Point Humidity Pressure Visibility Wind Dir Wind Speed Gust Speed Precip Events Conditions
12:53 AM 50.0 °F - 46.0 °F 86% 30.00 in 10.0 mi SW 5.8 mph - N/A   Clear
1:53 AM 48.0 °F - 46.0 °F 93% 30.01 in 10.0 mi WSW 4.6 mph - N/A   Clear
2:53 AM 46.9 °F - 43.0 °F 86% 30.02 in 10.0 mi West 4.6 mph - N/A   Clear
3:53 AM 46.9 °F - 42.1 °F 83% 30.02 in 10.0 mi SSW 3.5 mph - N/A   Partly Cloudy
4:53 AM 43.0 °F 41.3 °F 41.0 °F 93% 30.03 in 10.0 mi West 3.5 mph - N/A   Partly Cloudy
5:53 AM 42.1 °F 39.2 °F 39.9 °F 92% 30.03 in 10.0 mi West 4.6 mph - N/A   Clear
6:53 AM 43.0 °F 41.3 °F 39.9 °F 89% 30.05 in 10.0 mi West 3.5 mph - N/A   Partly Cloudy
7:53 AM 43.0 °F 40.3 °F 41.0 °F 93% 30.06 in 10.0 mi West 4.6 mph - N/A   Mostly Cloudy
8:53 AM 45.0 °F - 41.0 °F 86% 30.06 in 10.0 mi Calm Calm - N/A   Partly Cloudy
9:53 AM 48.0 °F - 41.0 °F 77% 30.07 in 10.0 mi NNW 5.8 mph - N/A   Partly Cloudy
10:53 AM 50.0 °F - 41.0 °F 71% 30.07 in 10.0 mi Calm Calm - N/A   Mostly Cloudy
11:53 AM 51.1 °F - 41.0 °F 68% 30.06 in 10.0 mi NNW 3.5 mph - N/A   Overcast
12:53 PM 52.0 °F - 41.0 °F 66% 30.05 in 10.0 mi West 4.6 mph - N/A   Overcast
1:53 PM 51.1 °F - 39.9 °F 66% 30.05 in 10.0 mi NNW 8.1 mph - N/A   Overcast
2:53 PM 51.1 °F - 39.9 °F 66% 30.05 in 10.0 mi NNW 6.9 mph - N/A   Overcast
3:24 PM 51.1 °F - 39.9 °F 66% 30.04 in 10.0 mi NW 5.8 mph - N/A   Overcast
3:53 PM 51.1 °F - 39.9 °F 66% 30.05 in 10.0 mi Calm Calm - N/A   Overcast
4:53 PM 50.0 °F - 41.0 °F 71% 30.05 in 10.0 mi East 4.6 mph - N/A   Overcast
5:53 PM 48.9 °F - 41.0 °F 74% 30.06 in 10.0 mi ESE 5.8 mph - N/A   Overcast
6:53 PM 48.0 °F - 42.1 °F 80% 30.06 in 8.0 mi ESE 4.6 mph - 0.00 in   Light Drizzle
7:24 PM 46.9 °F - 42.1 °F 83% 30.06 in 5.0 mi East 3.5 mph - 0.00 in   Light Drizzle
7:53 PM 46.9 °F - 43.0 °F 86% 30.07 in 4.0 mi ENE 5.8 mph - 0.00 in   Light Drizzle
8:17 PM 46.0 °F 44.8 °F 43.0 °F 89% 30.05 in 4.0 mi Variable 3.5 mph - 0.00 in   Light Drizzle
8:53 PM 46.0 °F 42.5 °F 44.1 °F 93% 30.06 in 4.0 mi East 6.9 mph - 0.00 in   Light Drizzle
9:53 PM 46.0 °F 41.9 °F 43.0 °F 89% 30.04 in 6.0 mi East 8.1 mph - 0.00 in   Overcast
10:53 PM 46.9 °F - 43.0 °F 86% 30.02 in 8.0 mi ESE 8.1 mph - N/A   Overcast
11:53 PM 46.9 °F - 43.0 °F 86% 29.99 in 8.0 mi East 5.8 mph - N/A   Overcast